Time,TemperatureF,DewpointF,PressureIn,WindDirection,WindDirectionDegrees,WindSpeedMPH,WindSpeedGustMPH,Humidity,HourlyPrecipIn,Conditions,Clouds,dailyrainin,SolarRadiationWatts/m^2,SoftwareType,DateUTC
2013-06-14 00:00:00,68.7,46.0,29.72,South,187,8.0,-999.0,37,-99.99,,,0.03,0.0,cwc,2013-06-14 06:00:00,
2013-06-14 00:05:00,70.7,46.6,29.71,SE,134,6.0,-999.0,33,-99.99,,,0.00,0.0,cwc,2013-06-14 06:05:00,
2013-06-14 00:10:00,72.5,47.7,29.71,SSW,198,4.0,-999.0,31,-99.99,,,0.00,0.0,cwc,2013-06-14 06:10:00,
2013-06-14 00:15:00,73.4,48.6,29.70,SSW,202,12.0,-999.0,31,-99.99,,,0.00,0.0,cwc,2013-06-14 06:15:00,
2013-06-14 00:25:00,74.4,48.5,29.69,South,173,4.0,-999.0,28,-99.99,,,0.00,0.0,cwc,2013-06-14 06:25:00,
2013-06-14 00:30:00,74.4,48.8,29.69,South,174,2.0,-999.0,29,-99.99,,,0.00,0.0,cwc,2013-06-14 06:30:00,
2013-06-14 00:35:00,74.1,49.3,29.69,WNW,290,5.0,-999.0,31,-99.99,,,0.00,0.0,cwc,2013-06-14 06:35:00,
2013-06-14 00:40:00,73.5,49.4,29.69,WNW,288,5.0,-999.0,33,-99.99,,,0.00,0.0,cwc,2013-06-14 06:40:00,
2013-06-14 00:45:00,72.8,48.0,29.69,NNW,327,4.0,-999.0,31,-99.99,,,0.00,0.0,cwc,2013-06-14 06:45:00,
2013-06-14 00:50:00,72.5,48.0,29.68,NNW,327,3.0,-999.0,32,-99.99,,,0.00,0.0,cwc,2013-06-14 06:50:00,
2013-06-14 00:55:00,72.2,47.7,29.68,NNW,327,2.0,-999.0,32,-99.99,,,0.00,0.0,cwc,2013-06-14 06:55:00,
2013-06-14 01:00:00,72.1,47.3,29.68,NNW,327,2.0,-999.0,31,-99.99,,,0.00,0.0,cwc,2013-06-14 07:00:00,
2013-06-14 01:05:00,72.2,47.4,29.67,NNW,327,0.0,-999.0,31,-99.99,,,0.00,0.0,cwc,2013-06-14 07:05:00,
2013-06-14 01:10:00,72.2,47.7,29.67,NW,325,3.0,-999.0,32,-99.99,,,0.00,0.0,cwc,2013-06-14 07:10:00,
2013-06-14 01:15:00,72.1,47.6,29.67,NW,325,2.0,-999.0,32,-99.99,,,0.00,0.0,cwc,2013-06-14 07:15:00,
2013-06-14 01:20:00,72.0,47.5,29.67,NW,325,2.0,-999.0,32,-99.99,,,0.00,0.0,cwc,2013-06-14 07:20:00,
2013-06-14 01:25:00,71.5,47.7,29.67,NW,321,5.0,-999.0,34,-99.99,,,0.00,0.0,cwc,2013-06-14 07:25:00,
2013-06-14 01:30:00,70.2,46.4,29.67,WNW,303,4.0,-999.0,34,-99.99,,,0.00,0.0,cwc,2013-06-14 07:30:00,
2013-06-14 01:35:00,69.2,45.4,29.67,WNW,302,1.0,-999.0,34,-99.99,,,0.00,0.0,cwc,2013-06-14 07:35:00,
2013-06-14 01:40:00,68.5,45.1,29.67,WNW,302,4.0,-999.0,35,-99.99,,,0.00,0.0,cwc,2013-06-14 07:40:00,
2013-06-14 01:45:00,67.8,44.8,29.67,WNW,302,2.0,-999.0,36,-99.99,,,0.00,0.0,cwc,2013-06-14 07:45:00,
2013-06-14 01:50:00,67.3,45.3,29.67,WNW,302,0.0,-999.0,39,-99.99,,,0.00,0.0,cwc,2013-06-14 07:50:00,
2013-06-14 01:55:00,66.9,44.6,29.66,WNW,302,0.0,-999.0,38,-99.99,,,0.00,0.0,cwc,2013-06-14 07:55:00,
2013-06-14 02:00:00,66.4,44.1,29.67,WNW,302,0.0,-999.0,38,-99.99,,,0.00,0.0,cwc,2013-06-14 08:00:00,
2013-06-14 02:05:00,66.1,43.8,29.66,WNW,302,0.0,-999.0,38,-99.99,,,0.00,0.0,cwc,2013-06-14 08:05:00,
2013-06-14 02:10:00,65.8,43.8,29.66,WNW,302,0.0,-999.0,39,-99.99,,,0.00,0.0,cwc,2013-06-14 08:10:00,
2013-06-14 02:15:00,65.6,43.3,29.66,WNW,302,1.0,-999.0,38,-99.99,,,0.00,0.0,cwc,2013-06-14 08:15:00,
2013-06-14 02:20:00,65.5,44.6,29.66,WNW,302,0.0,-999.0,42,-99.99,,,0.00,0.0,cwc,2013-06-14 08:20:00,
2013-06-14 02:25:00,65.1,43.5,29.66,WNW,299,1.0,-999.0,40,-99.99,,,0.00,0.0,cwc,2013-06-14 08:25:00,
2013-06-14 02:30:00,67.3,43.9,29.65,NE,42,8.0,-999.0,35,-99.99,,,0.00,0.0,cwc,2013-06-14 08:30:00,
2013-06-14 02:40:00,67.7,44.7,29.65,East,82,3.0,-999.0,36,-99.99,,,0.00,0.0,cwc,2013-06-14 08:40:00,
2013-06-14 02:45:00,67.6,44.6,29.65,NNE,28,5.0,-999.0,36,-99.99,,,0.00,0.0,cwc,2013-06-14 08:45:00,
2013-06-14 02:50:00,67.5,44.8,29.66,NNE,27,0.0,-999.0,37,-99.99,,,0.00,0.0,cwc,2013-06-14 08:50:00,
2013-06-14 02:55:00,67.4,45.1,29.66,NNW,330,5.0,-999.0,38,-99.99,,,0.00,0.0,cwc,2013-06-14 08:55:00,
2013-06-14 03:00:00,67.5,45.9,29.66,NNW,332,1.0,-999.0,40,-99.99,,,0.00,0.0,cwc,2013-06-14 09:00:00,
2013-06-14 03:05:00,67.6,45.6,29.66,NNW,327,4.0,-999.0,39,-99.99,,,0.00,0.0,cwc,2013-06-14 09:05:00,
2013-06-14 03:10:00,67.6,45.6,29.67,NW,311,1.0,-999.0,39,-99.99,,,0.00,0.0,cwc,2013-06-14 09:10:00,
2013-06-14 03:15:00,67.7,45.7,29.67,NW,312,0.0,-999.0,39,-99.99,,,0.00,0.0,cwc,2013-06-14 09:15:00,
2013-06-14 03:20:00,67.7,46.1,29.67,NW,313,3.0,-999.0,40,-99.99,,,0.00,0.0,cwc,2013-06-14 09:20:00,
2013-06-14 03:25:00,67.5,45.9,29.67,NW,313,0.0,-999.0,40,-99.99,,,0.00,0.0,cwc,2013-06-14 09:25:00,
2013-06-14 03:30:00,67.3,45.7,29.67,NW,313,3.0,-999.0,40,-99.99,,,0.00,0.0,cwc,2013-06-14 09:30:00,
2013-06-14 03:40:00,66.8,45.6,29.67,NW,312,1.0,-999.0,41,-99.99,,,0.00,0.0,cwc,2013-06-14 09:40:00,
2013-06-14 03:45:00,66.6,45.4,29.67,NW,313,2.0,-999.0,41,-99.99,,,0.00,0.0,cwc,2013-06-14 09:45:00,
2013-06-14 03:55:00,66.0,45.1,29.67,NW,313,0.0,-999.0,42,-99.99,,,0.00,0.0,cwc,2013-06-14 09:55:00,
2013-06-14 04:00:00,65.4,44.9,29.68,NW,313,0.0,-999.0,43,-99.99,,,0.00,0.0,cwc,2013-06-14 10:00:00,
2013-06-14 04:05:00,64.5,44.3,29.68,NW,312,2.0,-999.0,44,-99.99,,,0.00,0.0,cwc,2013-06-14 10:05:00,
2013-06-14 04:10:00,64.0,44.2,29.68,NW,312,0.0,-999.0,45,-99.99,,,0.00,0.0,cwc,2013-06-14 10:10:00,
2013-06-14 04:15:00,63.7,43.9,29.68,NW,312,1.0,-999.0,45,-99.99,,,0.00,0.0,cwc,2013-06-14 10:15:00,
2013-06-14 04:20:00,63.5,44.1,29.68,NW,312,0.0,-999.0,46,-99.99,,,0.00,0.0,cwc,2013-06-14 10:20:00,
2013-06-14 04:25:00,63.6,44.2,29.68,NW,312,0.0,-999.0,46,-99.99,,,0.00,0.0,cwc,2013-06-14 10:25:00,
2013-06-14 04:30:00,63.7,44.3,29.68,NW,312,0.0,-999.0,46,-99.99,,,0.00,0.0,cwc,2013-06-14 10:30:00,
2013-06-14 04:35:00,63.9,44.5,29.68,NW,311,0.0,-999.0,46,-99.99,,,0.00,0.0,cwc,2013-06-14 10:35:00,
2013-06-14 04:40:00,63.3,43.9,29.68,NW,311,1.0,-999.0,46,-99.99,,,0.00,0.0,cwc,2013-06-14 10:40:00,
2013-06-14 04:45:00,62.7,43.3,29.68,NW,312,0.0,-999.0,46,-99.99,,,0.00,0.0,cwc,2013-06-14 10:45:00,
2013-06-14 04:50:00,62.5,43.4,29.68,NW,312,0.0,-999.0,47,-99.99,,,0.00,0.0,cwc,2013-06-14 10:50:00,
2013-06-14 04:55:00,62.3,43.2,29.68,NW,312,1.0,-999.0,47,-99.99,,,0.00,0.0,cwc,2013-06-14 10:55:00,
2013-06-14 05:00:00,61.9,43.2,29.68,NW,312,3.0,-999.0,48,-99.99,,,0.00,0.0,cwc,2013-06-14 11:00:00,
2013-06-14 05:05:00,61.5,43.1,29.68,NW,312,1.0,-999.0,49,-99.99,,,0.00,0.0,cwc,2013-06-14 11:05:00,
2013-06-14 05:10:00,61.3,43.3,29.68,NW,311,2.0,-999.0,50,-99.99,,,0.00,0.0,cwc,2013-06-14 11:10:00,
2013-06-14 05:15:00,61.2,43.2,29.68,NW,311,0.0,-999.0,50,-99.99,,,0.00,0.0,cwc,2013-06-14 11:15:00,
2013-06-14 05:20:00,61.0,43.0,29.68,NW,312,1.0,-999.0,50,-99.99,,,0.00,0.0,cwc,2013-06-14 11:20:00,
2013-06-14 05:25:00,61.1,43.1,29.68,NW,312,2.0,-999.0,50,-99.99,,,0.00,0.0,cwc,2013-06-14 11:25:00,
2013-06-14 05:30:00,61.2,43.2,29.68,NW,312,0.0,-999.0,50,-99.99,,,0.00,0.0,cwc,2013-06-14 11:30:00,
2013-06-14 05:35:00,60.9,43.3,29.68,NW,311,0.0,-999.0,51,-99.99,,,0.00,0.0,cwc,2013-06-14 11:35:00,
2013-06-14 05:40:00,60.7,43.1,29.68,NW,312,2.0,-999.0,51,-99.99,,,0.00,0.0,cwc,2013-06-14 11:40:00,
2013-06-14 05:45:00,60.7,43.4,29.69,NW,312,4.0,-999.0,52,-99.99,,,0.00,9.0,cwc,2013-06-14 11:45:00,
2013-06-14 05:50:00,60.9,43.6,29.69,NW,311,0.0,-999.0,52,-99.99,,,0.00,9.0,cwc,2013-06-14 11:50:00,
2013-06-14 05:55:00,61.1,43.5,29.68,NW,311,0.0,-999.0,51,-99.99,,,0.00,5.0,cwc,2013-06-14 11:55:00,
2013-06-14 06:00:00,61.1,43.5,29.69,NW,312,0.0,-999.0,51,-99.99,,,0.00,7.0,cwc,2013-06-14 12:00:00,
2013-06-14 06:05:00,61.0,43.7,29.69,NW,312,0.0,-999.0,52,-99.99,,,0.00,9.0,cwc,2013-06-14 12:05:00,
2013-06-14 06:10:00,60.9,43.6,29.69,NW,311,0.0,-999.0,52,-99.99,,,0.00,14.0,cwc,2013-06-14 12:10:00,
2013-06-14 06:15:00,60.7,43.4,29.69,NW,312,0.0,-999.0,52,-99.99,,,0.00,16.0,cwc,2013-06-14 12:15:00,
2013-06-14 06:20:00,60.6,43.3,29.69,NW,312,0.0,-999.0,52,-99.99,,,0.00,19.0,cwc,2013-06-14 12:20:00,
2013-06-14 06:25:00,60.5,43.2,29.68,NW,311,0.0,-999.0,52,-99.99,,,0.00,23.0,cwc,2013-06-14 12:25:00,
2013-06-14 06:30:00,60.4,43.1,29.69,NW,311,0.0,-999.0,52,-99.99,,,0.00,28.0,cwc,2013-06-14 12:30:00,
2013-06-14 06:35:00,60.3,43.7,29.69,NW,312,0.0,-999.0,54,-99.99,,,0.00,33.0,cwc,2013-06-14 12:35:00,
2013-06-14 06:40:00,59.8,43.2,29.69,NW,312,0.0,-999.0,54,-99.99,,,0.00,63.0,cwc,2013-06-14 12:40:00,
2013-06-14 06:45:00,59.5,43.3,29.69,NW,312,3.0,-999.0,55,-99.99,,,0.00,53.0,cwc,2013-06-14 12:45:00,
2013-06-14 06:55:00,59.0,42.8,29.69,NW,312,0.0,-999.0,55,-99.99,,,0.00,62.0,cwc,2013-06-14 12:55:00,
2013-06-14 07:00:00,59.0,42.8,29.69,NW,312,0.0,-999.0,55,-99.99,,,0.00,84.0,cwc,2013-06-14 13:00:00,
2013-06-14 07:05:00,59.0,43.2,29.69,NW,312,0.0,-999.0,56,-99.99,,,0.00,93.0,cwc,2013-06-14 13:05:00,
2013-06-14 07:10:00,59.2,43.4,29.69,NW,312,0.0,-999.0,56,-99.99,,,0.00,70.0,cwc,2013-06-14 13:10:00,
2013-06-14 07:15:00,59.4,43.2,29.69,NW,312,1.0,-999.0,55,-99.99,,,0.00,109.0,cwc,2013-06-14 13:15:00,
2013-06-14 07:20:00,59.6,43.4,29.68,NW,312,2.0,-999.0,55,-99.99,,,0.00,132.0,cwc,2013-06-14 13:20:00,
2013-06-14 07:25:00,60.0,43.8,29.68,NW,311,2.0,-999.0,55,-99.99,,,0.00,86.0,cwc,2013-06-14 13:25:00,
2013-06-14 07:30:00,60.3,44.1,29.68,NW,312,0.0,-999.0,55,-99.99,,,0.00,76.0,cwc,2013-06-14 13:30:00,
2013-06-14 07:35:00,60.5,44.3,29.68,NW,312,0.0,-999.0,55,-99.99,,,0.00,93.0,cwc,2013-06-14 13:35:00,
2013-06-14 07:40:00,60.8,44.6,29.67,NW,312,0.0,-999.0,55,-99.99,,,0.00,120.0,cwc,2013-06-14 13:40:00,
2013-06-14 07:45:00,61.1,44.9,29.68,NW,311,0.0,-999.0,55,-99.99,,,0.00,98.0,cwc,2013-06-14 13:45:00,
2013-06-14 07:50:00,61.4,45.9,29.68,NW,311,0.0,-999.0,57,-99.99,,,0.00,260.0,cwc,2013-06-14 13:50:00,
2013-06-14 07:55:00,62.0,46.9,29.68,NW,312,0.0,-999.0,58,-99.99,,,0.00,322.0,cwc,2013-06-14 13:55:00,
2013-06-14 08:00:00,62.9,46.0,29.67,NW,312,0.0,-999.0,53,-99.99,,,0.00,364.0,cwc,2013-06-14 14:00:00,
2013-06-14 08:05:00,63.9,46.3,29.68,NW,311,0.0,-999.0,51,-99.99,,,0.00,357.0,cwc,2013-06-14 14:05:00,
2013-06-14 08:10:00,64.6,46.2,29.68,NW,312,0.0,-999.0,49,-99.99,,,0.00,125.0,cwc,2013-06-14 14:10:00,
2013-06-14 08:15:00,65.0,46.3,29.68,NW,312,0.0,-999.0,48,-99.99,,,0.00,258.0,cwc,2013-06-14 14:15:00,
2013-06-14 08:20:00,65.3,46.2,29.68,NW,311,0.0,-999.0,47,-99.99,,,0.00,241.0,cwc,2013-06-14 14:20:00,
2013-06-14 08:25:00,65.8,46.7,29.68,NW,312,1.0,-999.0,47,-99.99,,,0.00,311.0,cwc,2013-06-14 14:25:00,
2013-06-14 08:30:00,66.2,47.1,29.68,NW,312,0.0,-999.0,47,-99.99,,,0.00,169.0,cwc,2013-06-14 14:30:00,
2013-06-14 08:35:00,66.6,46.8,29.68,NW,311,0.0,-999.0,45,-99.99,,,0.00,186.0,cwc,2013-06-14 14:35:00,
2013-06-14 08:40:00,67.0,47.2,29.68,NW,311,0.0,-999.0,45,-99.99,,,0.00,181.0,cwc,2013-06-14 14:40:00,
2013-06-14 08:45:00,67.6,47.4,29.68,NW,312,3.0,-999.0,44,-99.99,,,0.00,519.0,cwc,2013-06-14 14:45:00,
2013-06-14 08:50:00,68.1,47.9,29.68,NW,312,0.0,-999.0,44,-99.99,,,0.00,517.0,cwc,2013-06-14 14:50:00,
2013-06-14 08:55:00,68.7,48.2,29.68,NW,312,1.0,-999.0,43,-99.99,,,0.00,533.0,cwc,2013-06-14 14:55:00,
2013-06-14 09:00:00,69.5,48.6,29.68,NW,311,0.0,-999.0,42,-99.99,,,0.00,550.0,cwc,2013-06-14 15:00:00,
2013-06-14 09:05:00,70.3,49.1,29.68,NW,312,0.0,-999.0,41,-99.99,,,0.00,563.0,cwc,2013-06-14 15:05:00,
2013-06-14 09:15:00,71.7,49.7,29.67,NW,311,1.0,-999.0,39,-99.99,,,0.00,594.0,cwc,2013-06-14 15:15:00,
2013-06-14 09:20:00,72.4,50.1,29.67,NW,312,1.0,-999.0,38,-99.99,,,0.00,608.0,cwc,2013-06-14 15:20:00,
2013-06-14 09:25:00,73.2,50.9,29.67,NW,312,0.0,-999.0,38,-99.99,,,0.00,628.0,cwc,2013-06-14 15:25:00,
2013-06-14 09:30:00,74.2,51.9,29.67,NW,312,0.0,-999.0,38,-99.99,,,0.00,638.0,cwc,2013-06-14 15:30:00,
2013-06-14 09:35:00,75.5,52.5,29.66,NW,313,3.0,-999.0,36,-99.99,,,0.00,657.0,cwc,2013-06-14 15:35:00,
2013-06-14 09:40:00,76.0,53.0,29.66,NW,313,1.0,-999.0,36,-99.99,,,0.00,668.0,cwc,2013-06-14 15:40:00,
2013-06-14 09:45:00,76.5,53.5,29.66,NW,313,1.0,-999.0,36,-99.99,,,0.00,682.0,cwc,2013-06-14 15:45:00,
2013-06-14 09:50:00,77.2,53.8,29.66,NW,313,1.0,-999.0,35,-99.99,,,0.00,696.0,cwc,2013-06-14 15:50:00,
2013-06-14 09:55:00,77.5,54.1,29.65,NW,313,1.0,-999.0,35,-99.99,,,0.00,710.0,cwc,2013-06-14 15:55:00,
2013-06-14 10:00:00,78.5,55.1,29.65,NW,313,3.0,-999.0,35,-99.99,,,0.00,724.0,cwc,2013-06-14 16:00:00,
2013-06-14 10:05:00,79.4,55.3,29.65,NW,313,2.0,-999.0,33,-99.99,,,0.00,738.0,cwc,2013-06-14 16:05:00,
2013-06-14 10:10:00,80.0,55.9,29.65,NW,313,1.0,-999.0,33,-99.99,,,0.00,751.0,cwc,2013-06-14 16:10:00,
2013-06-14 10:15:00,80.7,56.2,29.64,NNW,341,4.0,-999.0,32,-99.99,,,0.00,763.0,cwc,2013-06-14 16:15:00,
2013-06-14 10:20:00,80.3,55.8,29.64,North,355,5.0,-999.0,32,-99.99,,,0.00,775.0,cwc,2013-06-14 16:20:00,
2013-06-14 10:25:00,79.6,55.1,29.64,North,355,2.0,-999.0,32,-99.99,,,0.00,788.0,cwc,2013-06-14 16:25:00,
2013-06-14 10:30:00,79.5,55.4,29.64,North,349,2.0,-999.0,33,-99.99,,,0.00,798.0,cwc,2013-06-14 16:30:00,
2013-06-14 10:40:00,80.3,56.2,29.64,WSW,238,7.0,-999.0,33,-99.99,,,0.00,823.0,cwc,2013-06-14 16:40:00,
2013-06-14 10:45:00,80.5,56.7,29.63,South,187,0.0,-999.0,34,-99.99,,,0.00,830.0,cwc,2013-06-14 16:45:00,
2013-06-14 10:50:00,80.8,56.7,29.63,SW,225,2.0,-999.0,33,-99.99,,,0.00,842.0,cwc,2013-06-14 16:50:00,
2013-06-14 10:55:00,81.2,57.1,29.62,SW,214,13.0,-999.0,33,-99.99,,,0.00,856.0,cwc,2013-06-14 16:55:00,
2013-06-14 11:00:00,81.4,56.9,29.62,SW,219,1.0,-999.0,32,-99.99,,,0.00,870.0,cwc,2013-06-14 17:00:00,
2013-06-14 11:10:00,82.3,58.2,29.62,SSW,207,6.0,-999.0,33,-99.99,,,0.00,889.0,cwc,2013-06-14 17:10:00,
2013-06-14 11:15:00,82.5,58.0,29.62,SW,214,3.0,-999.0,32,-99.99,,,0.00,918.0,cwc,2013-06-14 17:15:00,
2013-06-14 11:20:00,83.0,58.2,29.61,WSW,246,7.0,-999.0,31,-99.99,,,0.00,932.0,cwc,2013-06-14 17:20:00,
2013-06-14 11:25:00,83.3,58.5,29.60,SW,226,5.0,-999.0,31,-99.99,,,0.00,942.0,cwc,2013-06-14 17:25:00,
2013-06-14 11:30:00,83.6,58.0,29.60,WSW,238,6.0,-999.0,29,-99.99,,,0.00,976.0,cwc,2013-06-14 17:30:00,
2013-06-14 11:35:00,83.8,58.2,29.60,SSE,165,4.0,-999.0,29,-99.99,,,0.00,1109.0,cwc,2013-06-14 17:35:00,
2013-06-14 11:40:00,84.4,58.8,29.60,SSW,198,9.0,-999.0,29,-99.99,,,0.00,851.0,cwc,2013-06-14 17:40:00,
2013-06-14 11:45:00,84.2,58.3,29.60,South,179,3.0,-999.0,28,-99.99,,,0.00,422.0,cwc,2013-06-14 17:45:00,
2013-06-14 11:50:00,84.0,58.1,29.60,SW,215,3.0,-999.0,28,-99.99,,,0.00,394.0,cwc,2013-06-14 17:50:00,
2013-06-14 11:55:00,83.6,57.7,29.60,SW,227,4.0,-999.0,28,-99.99,,,0.00,348.0,cwc,2013-06-14 17:55:00,
2013-06-14 12:00:00,83.2,57.3,29.60,SSW,206,3.0,-999.0,28,-99.99,,,0.00,315.0,cwc,2013-06-14 18:00:00,
2013-06-14 12:05:00,83.2,56.9,29.59,South,191,2.0,-999.0,27,-99.99,,,0.00,285.0,cwc,2013-06-14 18:05:00,
2013-06-14 12:10:00,83.2,57.3,29.59,SW,231,0.0,-999.0,28,-99.99,,,0.00,265.0,cwc,2013-06-14 18:10:00,
2013-06-14 12:15:00,82.8,57.6,29.59,SW,214,0.0,-999.0,30,-99.99,,,0.00,251.0,cwc,2013-06-14 18:15:00,
2013-06-14 12:20:00,82.3,57.1,29.59,WNW,302,1.0,-999.0,30,-99.99,,,0.00,241.0,cwc,2013-06-14 18:20:00,
2013-06-14 12:25:00,82.3,57.1,29.59,WSW,240,4.0,-999.0,30,-99.99,,,0.00,232.0,cwc,2013-06-14 18:25:00,
2013-06-14 12:30:00,82.3,57.1,29.59,WSW,238,2.0,-999.0,30,-99.99,,,0.00,225.0,cwc,2013-06-14 18:30:00,
2013-06-14 12:35:00,82.3,57.1,29.59,South,184,8.0,-999.0,30,-99.99,,,0.00,214.0,cwc,2013-06-14 18:35:00,
2013-06-14 12:40:00,82.3,56.7,29.58,SSW,195,4.0,-999.0,29,-99.99,,,0.00,211.0,cwc,2013-06-14 18:40:00,
2013-06-14 12:45:00,82.1,56.9,29.58,SSW,206,5.0,-999.0,30,-99.99,,,0.00,200.0,cwc,2013-06-14 18:45:00,
2013-06-14 12:50:00,82.0,56.4,29.58,SSW,202,3.0,-999.0,29,-99.99,,,0.00,162.0,cwc,2013-06-14 18:50:00,
2013-06-14 12:55:00,81.9,56.3,29.58,SSW,203,2.0,-999.0,29,-99.99,,,0.00,120.0,cwc,2013-06-14 18:55:00,
2013-06-14 13:00:00,81.8,55.9,29.58,SSE,168,1.0,-999.0,28,-99.99,,,0.00,84.0,cwc,2013-06-14 19:00:00,
2013-06-14 13:05:00,81.6,55.7,29.58,South,170,2.0,-999.0,28,-99.99,,,0.00,63.0,cwc,2013-06-14 19:05:00,
2013-06-14 13:10:00,81.5,55.9,29.58,South,169,2.0,-999.0,29,-99.99,,,0.00,47.0,cwc,2013-06-14 19:10:00,
2013-06-14 13:20:00,81.1,55.2,29.59,SSW,196,3.0,-999.0,28,-99.99,,,0.00,30.0,cwc,2013-06-14 19:20:00,
2013-06-14 13:25:00,81.0,54.7,29.59,SSW,197,0.0,-999.0,27,-99.99,,,0.00,30.0,cwc,2013-06-14 19:25:00,
2013-06-14 13:30:00,80.9,55.0,29.59,SSW,198,5.0,-999.0,28,-99.99,,,0.00,30.0,cwc,2013-06-14 19:30:00,
2013-06-14 13:35:00,80.8,55.2,29.60,SSW,198,0.0,-999.0,29,-99.99,,,0.00,32.0,cwc,2013-06-14 19:35:00,
2013-06-14 13:40:00,80.7,54.8,29.60,SSW,198,1.0,-999.0,28,-99.99,,,0.00,33.0,cwc,2013-06-14 19:40:00,
2013-06-14 13:45:00,80.5,54.9,29.59,South,183,3.0,-999.0,29,-99.99,,,0.00,32.0,cwc,2013-06-14 19:45:00,
2013-06-14 13:50:00,80.2,54.6,29.59,South,183,3.0,-999.0,29,-99.99,,,0.00,33.0,cwc,2013-06-14 19:50:00,
2013-06-14 13:55:00,80.0,54.4,29.60,South,184,3.0,-999.0,29,-99.99,,,0.00,33.0,cwc,2013-06-14 19:55:00,
2013-06-14 14:00:00,79.9,54.7,29.60,SSW,198,1.0,-999.0,30,-99.99,,,0.00,28.0,cwc,2013-06-14 20:00:00,
2013-06-14 14:05:00,79.7,54.9,29.61,South,190,5.0,-999.0,31,-99.99,,,0.00,26.0,cwc,2013-06-14 20:05:00,
2013-06-14 14:10:00,79.3,54.5,29.62,ESE,102,0.0,-999.0,31,-99.99,,,0.00,33.0,cwc,2013-06-14 20:10:00,
2013-06-14 14:15:00,78.7,54.2,29.61,NNE,32,9.0,-999.0,32,-99.99,,,0.00,39.0,cwc,2013-06-14 20:15:00,
2013-06-14 14:20:00,77.8,53.0,29.62,SE,141,6.0,-999.0,31,-99.99,,,0.00,40.0,cwc,2013-06-14 20:20:00,
2013-06-14 14:25:00,77.2,51.6,29.61,ESE,123,1.0,-999.0,29,-99.99,,,0.00,40.0,cwc,2013-06-14 20:25:00,
2013-06-14 14:30:00,77.2,51.3,29.61,SSE,159,8.0,-999.0,28,-99.99,,,0.00,42.0,cwc,2013-06-14 20:30:00,
2013-06-14 14:35:00,76.9,51.7,29.62,South,169,4.0,-999.0,30,-99.99,,,0.00,44.0,cwc,2013-06-14 20:35:00,
2013-06-14 14:40:00,76.2,52.1,29.61,NE,37,12.0,-999.0,33,-99.99,,,0.00,44.0,cwc,2013-06-14 20:40:00,
2013-06-14 14:45:00,75.6,51.5,29.62,ENE,64,0.0,-999.0,33,-99.99,,,0.00,46.0,cwc,2013-06-14 20:45:00,
2013-06-14 14:50:00,75.2,50.7,29.61,ESE,115,0.0,-999.0,32,-99.99,,,0.00,44.0,cwc,2013-06-14 20:50:00,
2013-06-14 14:55:00,74.9,50.8,29.62,SE,145,7.0,-999.0,33,-99.99,,,0.00,44.0,cwc,2013-06-14 20:55:00,
2013-06-14 15:00:00,74.9,50.4,29.63,South,179,6.0,-999.0,32,-99.99,,,0.00,40.0,cwc,2013-06-14 21:00:00,
2013-06-14 15:05:00,74.8,50.0,29.62,SSE,153,10.0,-999.0,31,-99.99,,,0.00,46.0,cwc,2013-06-14 21:05:00,
2013-06-14 15:10:00,74.4,50.3,29.63,SSE,161,7.0,-999.0,33,-99.99,,,0.00,53.0,cwc,2013-06-14 21:10:00,
2013-06-14 15:15:00,74.1,50.0,29.63,South,170,7.0,-999.0,33,-99.99,,,0.00,63.0,cwc,2013-06-14 21:15:00,
2013-06-14 15:20:00,74.1,49.6,29.62,SSE,160,4.0,-999.0,32,-99.99,,,0.00,84.0,cwc,2013-06-14 21:20:00,
2013-06-14 15:25:00,74.0,49.5,29.62,SSE,168,6.0,-999.0,32,-99.99,,,0.00,109.0,cwc,2013-06-14 21:25:00,
2013-06-14 15:30:00,74.2,49.4,29.61,East,90,0.0,-999.0,31,-99.99,,,0.00,142.0,cwc,2013-06-14 21:30:00,
2013-06-14 15:35:00,74.3,49.5,29.60,NE,47,4.0,-999.0,31,-99.99,,,0.00,225.0,cwc,2013-06-14 21:35:00,
2013-06-14 15:40:00,74.5,49.7,29.59,ENE,65,4.0,-999.0,31,-99.99,,,0.00,316.0,cwc,2013-06-14 21:40:00,
2013-06-14 15:45:00,74.8,50.7,29.59,ENE,57,5.0,-999.0,33,-99.99,,,0.00,302.0,cwc,2013-06-14 21:45:00,
2013-06-14 15:50:00,74.7,50.6,29.58,NE,40,4.0,-999.0,33,-99.99,,,0.00,311.0,cwc,2013-06-14 21:50:00,
2013-06-14 15:55:00,74.5,50.0,29.57,NE,45,0.0,-999.0,32,-99.99,,,0.00,267.0,cwc,2013-06-14 21:55:00,
2013-06-14 16:00:00,74.6,50.1,29.57,East,88,2.0,-999.0,32,-99.99,,,0.00,278.0,cwc,2013-06-14 22:00:00,
2013-06-14 16:05:00,74.9,50.1,29.57,East,79,2.0,-999.0,31,-99.99,,,0.00,274.0,cwc,2013-06-14 22:05:00,
2013-06-14 16:10:00,75.4,50.2,29.57,ESE,121,3.0,-999.0,30,-99.99,,,0.00,320.0,cwc,2013-06-14 22:10:00,
2013-06-14 16:15:00,75.9,50.3,29.57,ENE,74,0.0,-999.0,29,-99.99,,,0.00,364.0,cwc,2013-06-14 22:15:00,
2013-06-14 16:20:00,76.6,51.4,29.57,ENE,74,1.0,-999.0,30,-99.99,,,0.00,332.0,cwc,2013-06-14 22:20:00,
2013-06-14 16:25:00,77.4,50.8,29.56,SSW,207,7.0,-999.0,26,-99.99,,,0.00,329.0,cwc,2013-06-14 22:25:00,
2013-06-14 16:30:00,78.2,51.6,29.56,South,187,3.0,-999.0,26,-99.99,,,0.00,323.0,cwc,2013-06-14 22:30:00,
2013-06-14 16:35:00,78.7,51.7,29.57,South,175,4.0,-999.0,25,-99.99,,,0.00,274.0,cwc,2013-06-14 22:35:00,
2013-06-14 16:40:00,78.9,51.9,29.57,SSW,196,1.0,-999.0,25,-99.99,,,0.00,250.0,cwc,2013-06-14 22:40:00,
2013-06-14 16:45:00,79.2,52.2,29.57,SSW,196,4.0,-999.0,25,-99.99,,,0.00,239.0,cwc,2013-06-14 22:45:00,
2013-06-14 16:50:00,79.4,52.0,29.57,SSW,198,2.0,-999.0,24,-99.99,,,0.00,218.0,cwc,2013-06-14 22:50:00,
2013-06-14 16:55:00,79.6,52.2,29.56,SSW,203,6.0,-999.0,24,-99.99,,,0.00,202.0,cwc,2013-06-14 22:55:00,
2013-06-14 17:00:00,79.6,52.2,29.56,SSE,161,5.0,-999.0,24,-99.99,,,0.00,197.0,cwc,2013-06-14 23:00:00,
2013-06-14 17:05:00,79.6,51.9,29.56,South,188,5.0,-999.0,23,-99.99,,,0.00,190.0,cwc,2013-06-14 23:05:00,
2013-06-14 17:10:00,79.5,51.8,29.56,South,188,2.0,-999.0,23,-99.99,,,0.00,172.0,cwc,2013-06-14 23:10:00,
2013-06-14 17:15:00,79.5,52.1,29.56,South,188,1.0,-999.0,24,-99.99,,,0.00,156.0,cwc,2013-06-14 23:15:00,
2013-06-14 17:20:00,79.6,51.9,29.56,South,188,0.0,-999.0,23,-99.99,,,0.00,148.0,cwc,2013-06-14 23:20:00,
2013-06-14 17:25:00,79.6,52.6,29.56,South,191,5.0,-999.0,25,-99.99,,,0.00,148.0,cwc,2013-06-14 23:25:00,
2013-06-14 17:30:00,79.3,52.7,29.56,SSW,194,5.0,-999.0,26,-99.99,,,0.00,167.0,cwc,2013-06-14 23:30:00,
2013-06-14 17:35:00,79.0,52.0,29.55,South,190,3.0,-999.0,25,-99.99,,,0.00,181.0,cwc,2013-06-14 23:35:00,
2013-06-14 17:40:00,78.9,52.3,29.56,South,188,1.0,-999.0,26,-99.99,,,0.00,188.0,cwc,2013-06-14 23:40:00,
2013-06-14 17:45:00,78.9,52.6,29.55,South,188,2.0,-999.0,27,-99.99,,,0.00,204.0,cwc,2013-06-14 23:45:00,
2013-06-14 17:50:00,78.7,52.4,29.55,SSW,199,4.0,-999.0,27,-99.99,,,0.00,213.0,cwc,2013-06-14 23:50:00,
2013-06-14 17:55:00,78.5,52.6,29.55,SW,215,4.0,-999.0,28,-99.99,,,0.00,206.0,cwc,2013-06-14 23:55:00,
2013-06-14 18:00:00,78.3,52.4,29.55,SSW,203,3.0,-999.0,28,-99.99,,,0.00,279.0,cwc,2013-06-15 00:00:00,
2013-06-14 18:05:00,78.5,52.6,29.55,South,190,2.0,-999.0,28,-99.99,,,0.00,279.0,cwc,2013-06-15 00:05:00,
2013-06-14 18:10:00,78.7,52.8,29.55,South,190,3.0,-999.0,28,-99.99,,,0.00,253.0,cwc,2013-06-15 00:10:00,
2013-06-14 18:15:00,78.8,52.9,29.54,South,190,1.0,-999.0,28,-99.99,,,0.00,216.0,cwc,2013-06-15 00:15:00,
2013-06-14 18:20:00,79.0,52.7,29.54,SSW,199,2.0,-999.0,27,-99.99,,,0.00,181.0,cwc,2013-06-15 00:20:00,
2013-06-14 18:25:00,78.9,53.3,29.54,SSW,195,6.0,-999.0,29,-99.99,,,0.00,165.0,cwc,2013-06-15 00:25:00,
2013-06-14 18:30:00,78.6,53.0,29.54,SSW,193,3.0,-999.0,29,-99.99,,,0.00,156.0,cwc,2013-06-15 00:30:00,
2013-06-14 18:40:00,77.9,52.7,29.54,South,188,6.0,-999.0,30,-99.99,,,0.00,149.0,cwc,2013-06-15 00:40:00,
2013-06-14 18:45:00,77.5,52.3,29.54,South,190,10.0,-999.0,30,-99.99,,,0.00,135.0,cwc,2013-06-15 00:45:00,
2013-06-14 18:50:00,76.8,52.0,29.54,SSW,195,12.0,-999.0,31,-99.99,,,0.00,128.0,cwc,2013-06-15 00:50:00,
2013-06-14 18:55:00,76.3,51.8,29.55,SSW,211,4.0,-999.0,32,-99.99,,,0.00,125.0,cwc,2013-06-15 00:55:00,
2013-06-14 19:00:00,76.1,51.3,29.55,SW,225,3.0,-999.0,31,-99.99,,,0.00,118.0,cwc,2013-06-15 01:00:00,
2013-06-14 19:05:00,76.1,51.3,29.55,SSW,209,8.0,-999.0,31,-99.99,,,0.00,114.0,cwc,2013-06-15 01:05:00,
2013-06-14 19:10:00,76.2,51.0,29.55,WSW,244,5.0,-999.0,30,-99.99,,,0.00,98.0,cwc,2013-06-15 01:10:00,
2013-06-14 19:15:00,76.4,51.2,29.55,SW,232,8.0,-999.0,30,-99.99,,,0.00,81.0,cwc,2013-06-15 01:15:00,
2013-06-14 19:20:00,76.4,51.2,29.55,SSW,195,8.0,-999.0,30,-99.99,,,0.00,70.0,cwc,2013-06-15 01:20:00,
2013-06-14 19:25:00,76.5,51.3,29.56,SW,223,11.0,-999.0,30,-99.99,,,0.00,69.0,cwc,2013-06-15 01:25:00,
2013-06-14 19:30:00,76.4,51.2,29.57,SW,214,9.0,-999.0,30,-99.99,,,0.00,65.0,cwc,2013-06-15 01:30:00,
2013-06-14 19:35:00,76.3,51.5,29.57,South,183,9.0,-999.0,31,-99.99,,,0.00,63.0,cwc,2013-06-15 01:35:00,
2013-06-14 19:40:00,76.0,51.2,29.57,South,190,3.0,-999.0,31,-99.99,,,0.00,56.0,cwc,2013-06-15 01:40:00,
2013-06-14 19:45:00,75.9,51.1,29.57,South,182,7.0,-999.0,31,-99.99,,,0.00,62.0,cwc,2013-06-15 01:45:00,
2013-06-14 19:50:00,75.8,51.0,29.57,South,184,6.0,-999.0,31,-99.99,,,0.00,60.0,cwc,2013-06-15 01:50:00,
2013-06-14 19:55:00,75.7,50.5,29.57,SSW,202,5.0,-999.0,30,-99.99,,,0.00,46.0,cwc,2013-06-15 01:55:00,
2013-06-14 20:00:00,75.7,50.5,29.57,SSE,158,5.0,-999.0,30,-99.99,,,0.00,32.0,cwc,2013-06-15 02:00:00,
2013-06-14 20:05:00,75.7,50.5,29.58,SSW,194,5.0,-999.0,30,-99.99,,,0.00,23.0,cwc,2013-06-15 02:05:00,
2013-06-14 20:10:00,75.6,50.8,29.58,South,186,0.0,-999.0,31,-99.99,,,0.00,21.0,cwc,2013-06-15 02:10:00,
2013-06-14 20:15:00,75.5,51.0,29.58,South,190,6.0,-999.0,32,-99.99,,,0.00,16.0,cwc,2013-06-15 02:15:00,
2013-06-14 20:20:00,75.4,51.3,29.58,SSW,209,6.0,-999.0,33,-99.99,,,0.00,11.0,cwc,2013-06-15 02:20:00,
2013-06-14 20:25:00,75.2,51.1,29.58,SSW,209,9.0,-999.0,33,-99.99,,,0.00,5.0,cwc,2013-06-15 02:25:00,
2013-06-14 20:30:00,75.1,51.0,29.58,South,175,7.0,-999.0,33,-99.99,,,0.00,0.0,cwc,2013-06-15 02:30:00,
2013-06-14 20:35:00,74.8,51.0,29.57,South,169,6.0,-999.0,34,-99.99,,,0.00,0.0,cwc,2013-06-15 02:35:00,
2013-06-14 20:40:00,74.6,50.8,29.57,SSE,151,0.0,-999.0,34,-99.99,,,0.00,0.0,cwc,2013-06-15 02:40:00,
2013-06-14 20:45:00,74.4,51.0,29.58,SSW,211,2.0,-999.0,35,-99.99,,,0.00,0.0,cwc,2013-06-15 02:45:00,
2013-06-14 20:50:00,74.3,50.9,29.58,South,180,2.0,-999.0,35,-99.99,,,0.00,0.0,cwc,2013-06-15 02:50:00,
2013-06-14 20:55:00,74.2,50.8,29.58,WSW,252,2.0,-999.0,35,-99.99,,,0.00,0.0,cwc,2013-06-15 02:55:00,
2013-06-14 21:00:00,74.1,51.1,29.58,WSW,249,3.0,-999.0,36,-99.99,,,0.00,0.0,cwc,2013-06-15 03:00:00,
2013-06-14 21:05:00,73.8,50.8,29.58,SW,217,2.0,-999.0,36,-99.99,,,0.00,0.0,cwc,2013-06-15 03:05:00,
2013-06-14 21:10:00,73.6,50.6,29.58,SSW,207,4.0,-999.0,36,-99.99,,,0.00,0.0,cwc,2013-06-15 03:10:00,
2013-06-14 21:15:00,73.4,50.4,29.60,SSW,192,5.0,-999.0,36,-99.99,,,0.00,0.0,cwc,2013-06-15 03:15:00,
2013-06-14 21:20:00,73.3,50.3,29.60,South,179,3.0,-999.0,36,-99.99,,,0.00,0.0,cwc,2013-06-15 03:20:00,
2013-06-14 21:25:00,73.1,50.1,29.60,SSW,198,9.0,-999.0,36,-99.99,,,0.00,0.0,cwc,2013-06-15 03:25:00,
2013-06-14 21:30:00,72.8,50.1,29.60,SSW,203,4.0,-999.0,37,-99.99,,,0.00,0.0,cwc,2013-06-15 03:30:00,
2013-06-14 21:35:00,72.5,49.8,29.61,South,171,4.0,-999.0,37,-99.99,,,0.00,0.0,cwc,2013-06-15 03:35:00,
2013-06-14 21:40:00,72.2,49.9,29.61,South,172,10.0,-999.0,38,-99.99,,,0.00,0.0,cwc,2013-06-15 03:40:00,
2013-06-14 21:45:00,71.9,49.6,29.61,SSE,163,0.0,-999.0,38,-99.99,,,0.00,0.0,cwc,2013-06-15 03:45:00,
2013-06-14 21:50:00,71.7,49.4,29.62,SSE,163,2.0,-999.0,38,-99.99,,,0.00,0.0,cwc,2013-06-15 03:50:00,
2013-06-14 21:55:00,71.5,49.2,29.62,South,184,0.0,-999.0,38,-99.99,,,0.00,0.0,cwc,2013-06-15 03:55:00,
2013-06-14 22:00:00,71.2,49.2,29.63,SSW,200,11.0,-999.0,39,-99.99,,,0.00,0.0,cwc,2013-06-15 04:00:00,
2013-06-14 22:05:00,71.0,49.0,29.63,SW,214,13.0,-999.0,39,-99.99,,,0.00,0.0,cwc,2013-06-15 04:05:00,
2013-06-14 22:10:00,70.9,48.9,29.64,South,190,4.0,-999.0,39,-99.99,,,0.00,0.0,cwc,2013-06-15 04:10:00,
2013-06-14 22:15:00,70.6,48.6,29.64,SSW,198,13.0,-999.0,39,-99.99,,,0.00,0.0,cwc,2013-06-15 04:15:00,
2013-06-14 22:20:00,70.3,48.7,29.64,South,180,8.0,-999.0,40,-99.99,,,0.00,0.0,cwc,2013-06-15 04:20:00,
2013-06-14 22:25:00,70.0,48.4,29.63,SSE,154,3.0,-999.0,40,-99.99,,,0.00,0.0,cwc,2013-06-15 04:25:00,
2013-06-14 22:30:00,69.8,48.2,29.64,SE,146,2.0,-999.0,40,-99.99,,,0.00,0.0,cwc,2013-06-15 04:30:00,
2013-06-14 22:35:00,69.5,47.9,29.65,SSE,152,3.0,-999.0,40,-99.99,,,0.00,0.0,cwc,2013-06-15 04:35:00,
2013-06-14 22:40:00,69.3,47.7,29.65,SSE,153,0.0,-999.0,40,-99.99,,,0.00,0.0,cwc,2013-06-15 04:40:00,
2013-06-14 22:45:00,69.1,47.5,29.65,SSE,153,1.0,-999.0,40,-99.99,,,0.00,0.0,cwc,2013-06-15 04:45:00,
2013-06-14 22:50:00,68.9,47.3,29.65,SSE,155,3.0,-999.0,40,-99.99,,,0.00,0.0,cwc,2013-06-15 04:50:00,
2013-06-14 22:55:00,68.8,47.6,29.65,SW,215,13.0,-999.0,41,-99.99,,,0.00,0.0,cwc,2013-06-15 04:55:00,
2013-06-14 23:00:00,68.7,47.5,29.65,SSW,200,6.0,-999.0,41,-99.99,,,0.00,0.0,cwc,2013-06-15 05:00:00,
2013-06-14 23:05:00,68.4,47.5,29.64,South,184,6.0,-999.0,42,-99.99,,,0.00,0.0,cwc,2013-06-15 05:05:00,
2013-06-14 23:10:00,68.0,47.1,29.64,South,189,4.0,-999.0,42,-99.99,,,0.00,0.0,cwc,2013-06-15 05:10:00,
2013-06-14 23:15:00,67.7,47.2,29.65,South,191,1.0,-999.0,43,-99.99,,,0.00,0.0,cwc,2013-06-15 05:15:00,
2013-06-14 23:20:00,67.6,47.4,29.66,SW,216,0.0,-999.0,44,-99.99,,,0.00,0.0,cwc,2013-06-15 05:20:00,
2013-06-14 23:25:00,67.3,47.1,29.66,SSW,198,7.0,-999.0,44,-99.99,,,0.00,0.0,cwc,2013-06-15 05:25:00,
2013-06-14 23:30:00,67.1,47.3,29.66,SSE,156,0.0,-999.0,45,-99.99,,,0.00,0.0,cwc,2013-06-15 05:30:00,
2013-06-14 23:35:00,66.8,47.0,29.66,SE,146,5.0,-999.0,45,-99.99,,,0.00,0.0,cwc,2013-06-15 05:35:00,
2013-06-14 23:40:00,66.7,47.3,29.65,SE,126,6.0,-999.0,46,-99.99,,,0.00,0.0,cwc,2013-06-15 05:40:00,
2013-06-14 23:45:00,66.5,47.1,29.65,SE,126,2.0,-999.0,46,-99.99,,,0.00,0.0,cwc,2013-06-15 05:45:00,
2013-06-14 23:50:00,66.4,47.0,29.66,SE,126,2.0,-999.0,46,-99.99,,,0.00,0.0,cwc,2013-06-15 05:50:00,
2013-06-14 23:55:00,66.2,46.8,29.66,SE,126,0.0,-999.0,46,-99.99,,,0.00,0.0,cwc,2013-06-15 05:55:00,